• In United Kingdom
  • List of Countries
  • For 7 days
  • Water Temperature
  • Satellite Maps
  • Weather Map
  • Weather Widgets
  • user-avatar
    Login

    Hourly Weather Oaxaca

    Today, 21 September, Thursday

    Time Temperature Precipitation Wind Pressure Humidity
    00:00 +20°C° 0.2 mm 1 mps 633 mmHg 96%
    01:00 +20°C° 0.1 mm 1 mps 633 mmHg 96%
    02:00 +20°C° 0.1 mm 1 mps 632 mmHg 96%
    03:00 +20°C° 0.1 mm 1 mps 632 mmHg 96%
    04:00 +20°C° 0 mm 1 mps 632 mmHg 96%
    05:00 +20°C° 0 mm 1 mps 632 mmHg 96%
    06:00 +19°C° 0 mm 1 mps 632 mmHg 96%
    07:00 +20°C° 0 mm 1 mps 632 mmHg 92%
    08:00 +21°C° 0 mm 1 mps 633 mmHg 89%
    09:00 +22°C° 0 mm 1 mps 633 mmHg 85%
    10:00 +23°C° 0.2 mm 1 mps 633 mmHg 82%
    11:00 +24°C° 0.2 mm 1 mps 634 mmHg 79%
    12:00 +24°C° 0.2 mm 2 mps 634 mmHg 76%
    13:00 +24°C° 1.1 mm 2 mps 633 mmHg 78%
    14:00 +24°C° 1.1 mm 2 mps 632 mmHg 81%
    15:00 +23°C° 1.1 mm 2 mps 632 mmHg 83%
    16:00 +23°C° 1.1 mm 2 mps 632 mmHg 86%
    17:00 +22°C° 1.1 mm 1 mps 631 mmHg 89%
    18:00 +22°C° 1.1 mm 1 mps 631 mmHg 91%
    19:00 +21°C° 0.7 mm 1 mps 632 mmHg 93%
    20:00 +19°C° 0.7 mm 0 mps 632 mmHg 94%
    21:00 +18°C° 0.7 mm 0 mps 633 mmHg 96%
    22:00 +18°C° 0.4 mm 0 mps 633 mmHg 96%
    23:00 +18°C° 0.4 mm 0 mps 632 mmHg 96%

    Tomorrow, 22 September, Friday

    Time Temperature Precipitation Wind Pressure Humidity
    00:00 +18°C° 0.4 mm 0 mps 632 mmHg 96%
    01:00 +17°C° 0.2 mm 0 mps 632 mmHg 96%
    02:00 +17°C° 0.2 mm 0 mps 632 mmHg 97%
    03:00 +17°C° 0.2 mm 0 mps 631 mmHg 97%
    04:00 +17°C° 0.1 mm 0 mps 631 mmHg 96%
    05:00 +17°C° 0.1 mm 0 mps 631 mmHg 96%
    06:00 +17°C° 0.1 mm 0 mps 631 mmHg 96%
    07:00 +18°C° 0 mm 0 mps 632 mmHg 91%
    08:00 +20°C° 0 mm 0 mps 633 mmHg 86%
    09:00 +21°C° 0 mm 0 mps 633 mmHg 81%
    10:00 +24°C° 0.1 mm 1 mps 633 mmHg 78%
    11:00 +24°C° 0.1 mm 1 mps 633 mmHg 75%
    12:00 +25°C° 0.1 mm 1 mps 633 mmHg 71%
    13:00 +25°C° 0.7 mm 1 mps 633 mmHg 72%
    14:00 +25°C° 0.7 mm 1 mps 632 mmHg 73%
    15:00 +25°C° 0.7 mm 2 mps 631 mmHg 73%
    16:00 +24°C° 1.3 mm 1 mps 631 mmHg 78%
    17:00 +24°C° 1.3 mm 1 mps 631 mmHg 82%
    18:00 +23°C° 1.3 mm 1 mps 631 mmHg 87%
    19:00 +22°C° 1.5 mm 1 mps 631 mmHg 89%
    20:00 +22°C° 1.5 mm 1 mps 632 mmHg 91%
    21:00 +21°C° 1.5 mm 1 mps 632 mmHg 93%
    22:00 +19°C° 0.5 mm 0 mps 632 mmHg 93%
    23:00 +18°C° 0.5 mm 0 mps 632 mmHg 94%

    Day after tomorrow, 23 September, Saturday

    Time Temperature Precipitation Wind Pressure Humidity
    00:00 +18°C° 0.5 mm 0 mps 632 mmHg 94%
    01:00 +18°C° 0.1 mm 0 mps 631 mmHg 94%
    02:00 +18°C° 0.1 mm 0 mps 631 mmHg 94%
    03:00 +17°C° 0.1 mm 0 mps 630 mmHg 95%
    04:00 +17°C° 0 mm 0 mps 630 mmHg 95%
    05:00 +17°C° 0 mm 0 mps 630 mmHg 95%
    06:00 +17°C° 0 mm 0 mps 630 mmHg 95%
    07:00 +18°C° 0 mm 0 mps 631 mmHg 90%
    08:00 +22°C° 0 mm 1 mps 632 mmHg 84%
    09:00 +23°C° 0 mm 1 mps 633 mmHg 79%
    10:00 +24°C° 0.2 mm 1 mps 633 mmHg 75%
    11:00 +25°C° 0.2 mm 1 mps 633 mmHg 71%
    12:00 +26°C° 0.2 mm 1 mps 633 mmHg 67%
    13:00 +26°C° 1.1 mm 1 mps 632 mmHg 68%
    14:00 +26°C° 1.1 mm 2 mps 632 mmHg 69%
    15:00 +26°C° 1.1 mm 2 mps 631 mmHg 71%
    16:00 +25°C° 1.4 mm 2 mps 631 mmHg 76%
    17:00 +24°C° 1.4 mm 1 mps 631 mmHg 81%
    18:00 +23°C° 1.4 mm 1 mps 631 mmHg 86%
    19:00 +22°C° 1.8 mm 1 mps 631 mmHg 88%
    20:00 +22°C° 1.8 mm 1 mps 631 mmHg 90%
    21:00 +21°C° 1.8 mm 1 mps 632 mmHg 93%
    22:00 +21°C° 1.2 mm 1 mps 632 mmHg 93%
    23:00 +19°C° 1.2 mm 0 mps 631 mmHg 94%

    24 September, Sunday

    Time Temperature Precipitation Wind Pressure Humidity
    00:00 +19°C° 1.2 mm 0 mps 631 mmHg 94%
    01:00 +18°C° 0.5 mm 0 mps 631 mmHg 95%
    02:00 +18°C° 0.5 mm 0 mps 630 mmHg 95%
    03:00 +18°C° 0.5 mm 0 mps 630 mmHg 96%
    04:00 +17°C° 0.2 mm 0 mps 630 mmHg 96%
    05:00 +17°C° 0.2 mm 0 mps 630 mmHg 96%
    06:00 +17°C° 0.2 mm 0 mps 630 mmHg 96%
    07:00 +19°C° 0 mm 0 mps 631 mmHg 90%
    08:00 +20°C° 0 mm 0 mps 632 mmHg 85%
    09:00 +21°C° 0 mm 0 mps 632 mmHg 80%
    10:00 +24°C° 0.2 mm 1 mps 632 mmHg 76%
    11:00 +25°C° 0.2 mm 1 mps 632 mmHg 71%
    12:00 +26°C° 0.2 mm 1 mps 632 mmHg 67%
    13:00 +26°C° 1.2 mm 1 mps 631 mmHg 69%
    14:00 +26°C° 1.2 mm 2 mps 631 mmHg 71%
    15:00 +26°C° 1.2 mm 2 mps 630 mmHg 73%
    16:00 +25°C° 1.8 mm 2 mps 630 mmHg 79%
    17:00 +24°C° 1.8 mm 2 mps 630 mmHg 84%
    18:00 +23°C° 1.8 mm 1 mps 630 mmHg 89%
    19:00 +22°C° 2.1 mm 1 mps 630 mmHg 90%
    20:00 +22°C° 2.1 mm 1 mps 631 mmHg 92%
    21:00 +21°C° 2.1 mm 1 mps 631 mmHg 93%
    22:00 +21°C° 1.6 mm 1 mps 631 mmHg 94%
    23:00 +19°C° 1.6 mm 0 mps 631 mmHg 94%

    25 September, Monday

    Time Temperature Precipitation Wind Pressure Humidity
    00:00 +19°C° 1.6 mm 0 mps 631 mmHg 94%
    01:00 +19°C° 0.4 mm 0 mps 630 mmHg 94%
    02:00 +19°C° 0.4 mm 0 mps 630 mmHg 94%
    03:00 +18°C° 0.4 mm 0 mps 629 mmHg 95%
    04:00 +18°C° 0.1 mm 0 mps 630 mmHg 95%
    05:00 +18°C° 0.1 mm 0 mps 630 mmHg 95%
    06:00 +17°C° 0.1 mm 0 mps 630 mmHg 95%
    07:00 +19°C° 0 mm 0 mps 631 mmHg 90%
    08:00 +20°C° 0 mm 0 mps 631 mmHg 85%
    09:00 +24°C° 0 mm 1 mps 632 mmHg 80%
    10:00 +24°C° 0.3 mm 1 mps 632 mmHg 77%
    11:00 +25°C° 0.3 mm 1 mps 632 mmHg 73%
    12:00 +26°C° 0.3 mm 1 mps 632 mmHg 69%
    13:00 +26°C° 1 mm 1 mps 631 mmHg 70%
    14:00 +26°C° 1 mm 1 mps 631 mmHg 71%
    15:00 +26°C° 1 mm 2 mps 630 mmHg 71%
    16:00 +25°C° 1 mm 1 mps 630 mmHg 76%
    17:00 +24°C° 1 mm 1 mps 630 mmHg 81%
    18:00 +23°C° 1 mm 1 mps 630 mmHg 85%
    19:00 +23°C° 1 mm 1 mps 631 mmHg 88%
    20:00 +22°C° 1 mm 1 mps 631 mmHg 91%
    21:00 +19°C° 1 mm 0 mps 631 mmHg 94%
    22:00 +19°C° 0.7 mm 0 mps 631 mmHg 95%
    23:00 +19°C° 0.7 mm 0 mps 631 mmHg 95%

    26 September, Tuesday

    Time Temperature Precipitation Wind Pressure Humidity
    00:00 +19°C° 0.7 mm 0 mps 631 mmHg 95%
    01:00 +18°C° 0.6 mm 0 mps 630 mmHg 95%
    02:00 +18°C° 0.6 mm 0 mps 630 mmHg 95%
    03:00 +18°C° 0.6 mm 0 mps 630 mmHg 95%
    04:00 +18°C° 0.3 mm 0 mps 630 mmHg 95%
    05:00 +18°C° 0.3 mm 0 mps 630 mmHg 95%
    06:00 +18°C° 0.3 mm 0 mps 630 mmHg 95%
    07:00 +19°C° 0.4 mm 0 mps 631 mmHg 93%
    08:00 +19°C° 0.4 mm 0 mps 631 mmHg 90%
    09:00 +20°C° 0.4 mm 0 mps 631 mmHg 88%
    10:00 +23°C° 0.5 mm 1 mps 631 mmHg 84%
    11:00 +24°C° 0.5 mm 1 mps 631 mmHg 81%
    12:00 +24°C° 0.5 mm 1 mps 631 mmHg 77%
    13:00 +24°C° 0.9 mm 1 mps 631 mmHg 78%
    14:00 +24°C° 0.9 mm 1 mps 630 mmHg 79%
    15:00 +24°C° 0.9 mm 1 mps 629 mmHg 80%
    16:00 +23°C° 0.8 mm 1 mps 630 mmHg 84%
    17:00 +23°C° 0.8 mm 1 mps 630 mmHg 87%
    18:00 +22°C° 0.8 mm 1 mps 630 mmHg 91%
    19:00 +22°C° 1.1 mm 1 mps 630 mmHg 92%
    20:00 +22°C° 1.1 mm 1 mps 630 mmHg 94%
    21:00 +21°C° 1.1 mm 1 mps 631 mmHg 95%
    22:00 +21°C° 1.1 mm 1 mps 631 mmHg 95%
    23:00 +21°C° 1.1 mm 1 mps 630 mmHg 95%
    Show more